Regional Weather Roundup
Issued by NWS

Home | Current Version | Previous Version | Text Only | Print | Product List | Glossary On
Versions: 1 2 3 4 5 6 7 8 9 10 11 12 13 14 15 16 17 18 19 20 21 22 23 24 25 26 27 28 29 30 31 32 33 34 35 36 37 38 39 40 41 42 43 44 45 46 47 48 49
000
ASUS45 KBOI 042310
RWRID

IDAHO REGIONAL WEATHER ROUNDUP
NATIONAL WEATHER SERVICE BOISE ID
500 PM MDT TUE AUG 04 2015

NOTE: "FAIR" INDICATES FEW OR NO CLOUDS BELOW 12000 FEET
WITH NO SIGNIFICANT WEATHER AND/OR OBSTRUCTIONS TO VISIBILITY

IDZ012-014-050000-
SOUTHWEST IDAHO


CITY           SKY/WX    TMP DP  RH WIND       PRES   REMARKS
BOISE          SUNNY     91  47  21 NW12      29.89F
CALDWELL       SUNNY     90  48  24 CALM      29.89F
MOUNTAIN HOME  SUNNY     94  45  18 W8        29.87F HX  90
$$

IDZ016-017-050000-
SOUTHCENTRAL IDAHO


CITY           SKY/WX    TMP DP  RH WIND       PRES   REMARKS
BURLEY         PTSUNNY   82  52  35 CALM      29.97R
JEROME         MOSUNNY   83  50  31 S9        29.99R
TWIN FALLS     LGT RAIN  85  36  17 SW16G31   29.99R
$$

IDZ019>023-050000-
SOUTHEAST IDAHO


CITY           SKY/WX    TMP DP  RH WIND       PRES   REMARKS
IDAHO FALLS    PTSUNNY   79  46  31 VRB6      30.03S
POCATELLO      PTSUNNY   90  40  17 VRB5G18   30.00F
REXBURG        TSTM      67  52  58 W16G30    30.09R
$$

IDZ006-010-011-018-031-032-050000-
CENTRAL IDAHO MOUNTAINS


CITY           SKY/WX    TMP DP  RH WIND       PRES   REMARKS
MCCALL         SUNNY     81  39  22 S9        30.03F
HAILEY         MOSUNNY   84  41  21 W7G23     30.05F
STANLEY          N/A     79  29  16 S12G18    30.14S
SALMON         MOSUNNY   84  45  24 N9        29.90F
CHALLIS        MOSUNNY   85  27  12 SW14G23   29.99F
$$

IDZ002-004-006-007-026-050000-
NORTHERN IDAHO


CITY           SKY/WX    TMP DP  RH WIND       PRES   REMARKS
LEWISTON       MOSUNNY   94  40  15 NW9       29.81F HX  90
LOWELL           N/A     94  43  17 E3        29.79F HX  90
COEUR D`ALENE  MOSUNNY   86  41  20 SW10G18   29.86F
MULLAN PASS    SUNNY     70  39  32 VRB3      30.10F
$$


USA.gov is the U.S. government's official web portal to all federal, state and local government web resources and services.